Dati Storici

Data ora Umidita' aria (%) Temperatura aria (°C) Rad globale (W/m²) Gonioanemometro (°) Tacoanemometro (m/s) Pioggia (mm)
03-11-2012 20:50 88.7 % 12.244 4.197 219.932 0.296 0
03-11-2012 20:40 88.7 % 12.27 4.185 326.228 1.278 0
03-11-2012 20:30 88.6 % 12.312 4.492 21.276 0.356 0
03-11-2012 20:20 88.5 % 12.286 4.245 325.849 0.686 0
03-11-2012 20:10 88.8 % 12.307 4.63 12.785 1.1 0
03-11-2012 20:00 89.1 % 12.16 4.056 337.002 1.297 0
03-11-2012 19:50 89.4 % 12.232 3.531 69.338 1.077 0
03-11-2012 19:40 90.5 % 12.26 4.044 334.327 0.834 0
03-11-2012 19:30 90.8 % 12.234 4.172 9.433 0.967 0
03-11-2012 19:20 90.8 % 12.226 4.416 52.033 0.93 0
03-11-2012 19:10 90.8 % 12.24 4.313 4.939 1.782 0
03-11-2012 19:00 90.7 % 12.215 4.515 11.886 1.502 0
03-11-2012 18:50 90.3 % 12.23 4.4 17.935 2.045 0
03-11-2012 18:40 90 % 12.339 4.297 21.287 1.084 0
03-11-2012 18:30 89.5 % 12.38 4.168 14.539 1.368 0
03-11-2012 18:20 88.9 % 12.414 4.472 21.876 1.295 0
03-11-2012 18:10 88.3 % 12.462 4.562 42.353 1.029 0
03-11-2012 18:00 88.1 % 12.533 5.315 45.012 1.345 0
03-11-2012 17:50 87.9 % 12.561 5.699 10.031 1.668 0
03-11-2012 17:40 87.8 % 12.624 7.14 60.525 0.597 0

I dati sono presentati in modo automatico a scopo informativo. In seguito a verifica i dati possono subire modifiche o essere invalidati e non riportati negli archivi definitivi.